Location: Montreal
(45.5000°N, 73.5833°W)
Time: 12:50:39
(UTC-05:00)

Tiangong 2 - Pass Details

Date: 16 October 2017
Orbit: 386 x 390 km, 42.8° (Epoch: 17 December)

Event Time Altitude Azimuth Distance (km) Brightness Sun altitude
Exits shadow 06:12:40 17° 255° (WSW) 1,063 2.7 -11.2°
Maximum altitude 06:14:40 37° 195° (SSW) 629 2.0 -10.8°
Drops below altitude 10° 06:17:40 10° 126° (SE) 1,421 4.9 -10.3°
Sets 06:19:49 0° 117° (ESE) 2,276 6.3 -9.9°
